Location: Wavehorne
(51.0500°N, 0.8333°E)
Time: 17:07:27
(UTC+00:00)

NOSS 3-2 (A) - Pass Details

Date: 20 June 2021
Orbit: 774 x 1433 km, 63.4° (Epoch: 17 July)

Event Time Altitude Azimuth Distance (km) Brightness Sun altitude
Rises 02:20:04 0° 314° (NW) 3,853 6.8 -9.2°
Reaches altitude 10° 02:22:34 10° 316° (NW) 2,985 6.2 -9.0°
Maximum altitude 02:29:49 76° 43° (NE) 1,283 4.3 -8.4°
Drops below altitude 10° 02:38:14 10° 129° (SE) 3,423 6.3 -7.6°
Sets 02:41:16 0° 131° (SE) 4,447 6.9 -7.3°
